Hourly Weather Kanye

Today, 29 September, Tuesday

Time Temperature Precipitation Wind Pressure Humidity
00:00 +11°C° 0 mm 4 mps 651 mmHg 10%
01:00 +10°C° 0 mm 4 mps 650 mmHg 10%
02:00 +8°C° 0 mm 4 mps 650 mmHg 11%
03:00 +8°C° 0 mm 3 mps 650 mmHg 12%
04:00 +7°C° 0 mm 3 mps 649 mmHg 13%
05:00 +6°C° 0 mm 2 mps 649 mmHg 14%
06:00 +9°C° 0 mm 2 mps 651 mmHg 11%
07:00 +14°C° 0 mm 2 mps 652 mmHg 9%
08:00 +17°C° 0 mm 2 mps 653 mmHg 7%
09:00 +21°C° 0 mm 1 mps 654 mmHg 6%
10:00 +24°C° 0 mm 1 mps 655 mmHg 5%
11:00 +28°C° 0 mm 1 mps 655 mmHg 4%
12:00 +28°C° 0 mm 1 mps 654 mmHg 3%
13:00 +29°C° 0 mm 2 mps 654 mmHg 3%
14:00 +30°C° 0 mm 3 mps 653 mmHg 3%
15:00 +30°C° 0 mm 4 mps 653 mmHg 3%
16:00 +29°C° 0 mm 4 mps 652 mmHg 3%
17:00 +29°C° 0 mm 5 mps 652 mmHg 3%
18:00 +25°C° 0 mm 4 mps 651 mmHg 4%
19:00 +21°C° 0 mm 4 mps 651 mmHg 5%
20:00 +18°C° 0 mm 4 mps 650 mmHg 6%
21:00 +17°C° 0 mm 4 mps 650 mmHg 7%
22:00 +15°C° 0 mm 4 mps 651 mmHg 7%
23:00 +14°C° 0 mm 4 mps 651 mmHg 7%

Tomorrow, 30 September, Wednesday

Time Temperature Precipitation Wind Pressure Humidity
00:00 +12°C° 0 mm 3 mps 650 mmHg 8%
01:00 +11°C° 0 mm 3 mps 650 mmHg 9%
02:00 +10°C° 0 mm 2 mps 649 mmHg 10%
03:00 +10°C° 0 mm 3 mps 649 mmHg 15%
04:00 +10°C° 0 mm 3 mps 649 mmHg 20%
05:00 +10°C° 0 mm 4 mps 649 mmHg 25%
06:00 +12°C° 0 mm 5 mps 649 mmHg 45%
07:00 +14°C° 0 mm 6 mps 650 mmHg 64%
08:00 +16°C° 0 mm 7 mps 651 mmHg 83%
09:00 +18°C° 0 mm 8 mps 651 mmHg 74%
10:00 +21°C° 0 mm 8 mps 651 mmHg 66%
11:00 +22°C° 0 mm 8 mps 651 mmHg 57%
12:00 +26°C° 0 mm 7 mps 651 mmHg 47%
13:00 +28°C° 0 mm 7 mps 650 mmHg 38%
14:00 +32°C° 0 mm 6 mps 650 mmHg 28%
15:00 +29°C° 0.4 mm 7 mps 649 mmHg 35%
16:00 +27°C° 0.4 mm 7 mps 648 mmHg 41%
17:00 +24°C° 0.4 mm 8 mps 647 mmHg 48%
18:00 +23°C° 0.5 mm 7 mps 647 mmHg 57%
19:00 +21°C° 0.5 mm 7 mps 646 mmHg 66%
20:00 +19°C° 0.5 mm 6 mps 646 mmHg 75%
21:00 +18°C° 0 mm 7 mps 646 mmHg 76%
22:00 +17°C° 0 mm 7 mps 646 mmHg 77%
23:00 +17°C° 0 mm 7 mps 646 mmHg 79%

Day after tomorrow, 1 October, Thursday

Time Temperature Precipitation Wind Pressure Humidity
00:00 +17°C° 0 mm 7 mps 646 mmHg 80%
01:00 +17°C° 0 mm 7 mps 645 mmHg 82%
02:00 +17°C° 0 mm 6 mps 644 mmHg 83%
03:00 +16°C° 0.1 mm 6 mps 644 mmHg 85%
04:00 +16°C° 0.1 mm 6 mps 644 mmHg 87%
05:00 +15°C° 0.1 mm 6 mps 644 mmHg 89%
06:00 +17°C° 0 mm 6 mps 645 mmHg 81%
07:00 +19°C° 0 mm 6 mps 646 mmHg 73%
08:00 +21°C° 0 mm 7 mps 647 mmHg 64%
09:00 +22°C° 0 mm 7 mps 648 mmHg 50%
10:00 +24°C° 0 mm 7 mps 648 mmHg 35%
11:00 +27°C° 0 mm 7 mps 649 mmHg 20%
12:00 +28°C° 0 mm 7 mps 648 mmHg 16%
13:00 +28°C° 0 mm 8 mps 648 mmHg 13%
14:00 +28°C° 0 mm 8 mps 648 mmHg 9%
15:00 +27°C° 0 mm 9 mps 648 mmHg 9%
16:00 +26°C° 0 mm 9 mps 648 mmHg 9%
17:00 +24°C° 0 mm 9 mps 648 mmHg 9%
18:00 +21°C° 0 mm 8 mps 648 mmHg 12%
19:00 +17°C° 0 mm 8 mps 648 mmHg 15%
20:00 +14°C° 0 mm 7 mps 648 mmHg 19%
21:00 +12°C° 0 mm 7 mps 648 mmHg 22%
22:00 +11°C° 0 mm 6 mps 649 mmHg 24%
23:00 +10°C° 0 mm 6 mps 649 mmHg 27%

2 October, Friday

Time Temperature Precipitation Wind Pressure Humidity
00:00 +9°C° 0 mm 6 mps 649 mmHg 38%
01:00 +7°C° 0 mm 6 mps 648 mmHg 48%
02:00 +5°C° 0 mm 6 mps 648 mmHg 58%
03:00 +4°C° 0 mm 6 mps 648 mmHg 60%
04:00 +4°C° 0 mm 6 mps 648 mmHg 62%
05:00 +3°C° 0 mm 5 mps 649 mmHg 64%
06:00 +5°C° 0 mm 5 mps 649 mmHg 58%
07:00 +7°C° 0 mm 4 mps 650 mmHg 52%
08:00 +8°C° 0 mm 4 mps 651 mmHg 45%
09:00 +11°C° 0 mm 3 mps 652 mmHg 36%
10:00 +14°C° 0 mm 3 mps 652 mmHg 27%
11:00 +18°C° 0 mm 2 mps 652 mmHg 19%
12:00 +19°C° 0 mm 3 mps 652 mmHg 16%
13:00 +21°C° 0 mm 3 mps 652 mmHg 13%
14:00 +23°C° 0 mm 4 mps 652 mmHg 10%
15:00 +22°C° 0 mm 4 mps 651 mmHg 10%
16:00 +22°C° 0 mm 4 mps 651 mmHg 9%
17:00 +22°C° 0 mm 4 mps 651 mmHg 9%
18:00 +19°C° 0 mm 4 mps 651 mmHg 11%
19:00 +17°C° 0 mm 4 mps 651 mmHg 13%
20:00 +13°C° 0 mm 3 mps 651 mmHg 16%
21:00 +12°C° 0 mm 3 mps 651 mmHg 23%
22:00 +12°C° 0 mm 2 mps 651 mmHg 31%
23:00 +10°C° 0 mm 1 mps 651 mmHg 39%

3 October, Saturday

Time Temperature Precipitation Wind Pressure Humidity
00:00 +10°C° 0 mm 2 mps 651 mmHg 54%
01:00 +10°C° 0 mm 2 mps 652 mmHg 70%
02:00 +10°C° 0 mm 3 mps 652 mmHg 86%
03:00 +11°C° 0 mm 4 mps 652 mmHg 83%
04:00 +11°C° 0 mm 4 mps 653 mmHg 80%
05:00 +12°C° 0 mm 4 mps 653 mmHg 78%
06:00 +12°C° 0 mm 5 mps 653 mmHg 75%
07:00 +12°C° 0 mm 5 mps 654 mmHg 73%
08:00 +12°C° 0 mm 5 mps 654 mmHg 70%
09:00 +14°C° 0 mm 5 mps 655 mmHg 62%
10:00 +16°C° 0 mm 6 mps 655 mmHg 53%
11:00 +19°C° 0 mm 6 mps 656 mmHg 45%
12:00 +19°C° 0.1 mm 6 mps 655 mmHg 45%
13:00 +17°C° 0.1 mm 6 mps 655 mmHg 46%
14:00 +17°C° 0.1 mm 7 mps 654 mmHg 47%
15:00 +17°C° 0 mm 6 mps 654 mmHg 48%
16:00 +16°C° 0 mm 6 mps 654 mmHg 50%
17:00 +16°C° 0 mm 6 mps 654 mmHg 51%
18:00 +14°C° 0 mm 6 mps 654 mmHg 56%
19:00 +13°C° 0 mm 6 mps 654 mmHg 61%
20:00 +12°C° 0 mm 5 mps 654 mmHg 67%
21:00 +10°C° 0 mm 5 mps 654 mmHg 70%
22:00 +9°C° 0 mm 5 mps 655 mmHg 73%
23:00 +8°C° 0 mm 4 mps 655 mmHg 77%

4 October, Sunday

Time Temperature Precipitation Wind Pressure Humidity
00:00 +8°C° 0 mm 4 mps 654 mmHg 80%
01:00 +7°C° 0 mm 4 mps 654 mmHg 82%
02:00 +7°C° 0 mm 4 mps 653 mmHg 85%
03:00 +7°C° 0 mm 4 mps 653 mmHg 87%
04:00 +6°C° 0 mm 4 mps 653 mmHg 89%
05:00 +6°C° 0 mm 4 mps 653 mmHg 90%
06:00 +7°C° 0 mm 5 mps 654 mmHg 84%
07:00 +8°C° 0 mm 6 mps 654 mmHg 77%
08:00 +9°C° 0 mm 7 mps 655 mmHg 71%
09:00 +11°C° 0 mm 7 mps 655 mmHg 63%
10:00 +14°C° 0 mm 7 mps 656 mmHg 55%
11:00 +16°C° 0 mm 7 mps 656 mmHg 47%
12:00 +18°C° 0 mm 7 mps 656 mmHg 42%
13:00 +20°C° 0 mm 7 mps 655 mmHg 36%
14:00 +22°C° 0 mm 6 mps 655 mmHg 31%
15:00 +21°C° 0 mm 6 mps 655 mmHg 31%
16:00 +21°C° 0 mm 6 mps 654 mmHg 31%
17:00 +21°C° 0 mm 6 mps 654 mmHg 31%
18:00 +19°C° 0 mm 5 mps 654 mmHg 36%
19:00 +17°C° 0 mm 4 mps 654 mmHg 40%
20:00 +14°C° 0 mm 3 mps 654 mmHg 44%
21:00 +14°C° 0 mm 3 mps 654 mmHg 46%
22:00 +13°C° 0 mm 3 mps 654 mmHg 47%
23:00 +13°C° 0 mm 3 mps 654 mmHg 49%
Show more